Temp
71 72 76 77 71 68 62 64 68 69 69 72 74 74 70 71 68 61 79 80 79 79 80 80 73 74 75 75 75 75 75 76 76 76 75 75 76 76 76 76 76 77 78 78 78 78 78 77 76
74 74 76 70 67 63 64 65 66 70 72 73 75 74 73 68 76 75 77 78 79 79 79 79 73 73 74 74 74 75 75 75 75 75 75 75 76 76 76 76 76 76 77 77 78 78 78 76 75
74 75 75 66 60 63 64 67 69 69 73 73 72 74 71 68 74 74 75 75 78 77 78 76 71 72 74 74 74 74 74 74 74 74 75 75 75 76 76 75 75 76 77 77 78 78 77 75 73
77 77 70 66 61 63 64 67 71 72 73 74 73 67 71 71 70 70 71 74 73 72 72 70 69 71 72 73 73 73 73 73 73 73 74 75 75 75 75 75 75 75 76 77 77 77 75 73 72
73 71 64 61 60 64 68 69 71 70 70 71 72 65 65 67 66 68 70 71 70 68 70 72 69 69 70 71 71 71 71 71 71 72 72 73 74 74 74 74 74 74 75 76 76 75 74 72 71
71 68 62 59 59 65 68 69 72 70 70 70 69 65 62 67 67 66 68 65 66 65 65 67 69 68 68 69 69 69 70 70 70 70 71 71 71 71 73 73 73 73 73 74 74 74 73 72 71
66 63 59 58 59 63 68 71 70 70 70 69 73 62 64 64 66 67 67 67 66 65 64 64 65 66 66 66 66 67 67 68 68 69 68 68 68 69 70 72 73 73 73 73 73 72 72 71 71
66 66 57 58 60 62 69 71 71 72 68 73 74 62 60 64 66 67 66 65 64 63 63 62 64 63 64 64 64 64 65 65 66 66 67 68 70 70 70 70 73 72 72 72 72 71 70 70 70
66 61 58 59 59 65 70 69 71 70 70 65 62 65 68 67 67 66 66 64 63 62 61 61 61 61 62 63 63 62 62 63 63 65 64 68 73 75 73 70 69 70 71 71 71 71 70 69 68
65 61 60 64 66 66 68 70 70 69 66 61 61 62 65 65 64 63 62 60 60 59 59 60 59 58 60 64 59 60 62 62 62 63 64 67 68 71 72 70 68 69 69 70 70 70 69 69 80
61 62 62 66 68 69 67 68 69 68 64 64 62 60 62 62 61 61 60 59 58 58 59 58 57 57 57 58 60 60 61 61 61 61 61 62 65 67 70 72 75 76 73 78 77 78 79 79 77
61 64 64 67 67 67 67 68 66 66 65 68 65 62 61 60 59 59 58 58 58 58 57 58 56 55 55 58 59 59 59 59 59 59 59 60 62 63 64 68 69 71 75 75 76 77 78 77 76
61 63 64 66 64 66 66 66 65 59 59 63 61 60 58 57 57 57 58 58 57 56 56 56 56 54 55 55 56 57 57 57 57 58 58 58 59 59 61 63 65 68 66 70 71 75 76 77 75
61 62 62 64 65 65 65 63 66 56 60 59 58 57 57 57 56 56 56 55 55 55 55 55 56 54 54 54 54 54 56 57 57 57 56 56 57 57 59 59 61 64 67 64 65 71 72 71 75
61 57 60 63 64 64 66 61 61 60 59 56 56 55 55 55 55 54 54 54 54 55 54 53 55 54 53 54 54 55 56 56 56 56 55 55 56 56 56 58 59 61 62 61 60 62 68 69 70
57 56 53 60 61 62 65 57 61 58 57 55 54 54 53 53 53 54 53 53 54 53 52 53 54 53 53 53 53 55 55 55 55 56 56 55 55 55 55 57 57 59 59 61 61 60 61 67 66
52 50 48 54 60 59 60 57 56 58 58 54 54 53 52 51 52 53 53 53 52 51 51 51 52 51 51 52 52 53 53 54 55 55 56 54 55 55 55 56 57 57 58 59 59 61 59 60 66
47 48 49 50 57 57 56 57 54 55 55 55 53 52 52 52 51 52 52 52 52 51 51 50 51 50 49 51 52 54 55 54 55 55 55 53 55 54 54 56 56 57 54 53 56 57 61 58 59
51 49 48 51 56 54 55 55 56 54 54 51 52 51 51 51 52 51 51 51 51 50 49 49 48 49 49 50 50 52 51 52 53 54 53 53 53 54 54 55 56 56 54 52 51 52 55 59 60
49 47 48 52 54 53 53 54 54 51 53 54 53 51 51 49 50 49 50 50 48 48 48 48 48 48 49 50 50 50 49 51 52 53 52 53 52 53 54 53 53 54 53 52 51 50 49 56 61
47 46 45 48 51 53 51 51 47 49 51 52 52 53 51 50 49 48 48 47 48 47 46 46 47 48 48 48 50 50 52 52 52 51 52 53 52 51 51 51 51 51 52 51 51 51 49 48 55
43 51 51 48 47 43 50 43 49 48 48 48 51 50 50 49 48 48 47 47 47 46 46 46 47 47 48 48 48 46 46 45 47 49 51 50 52 51 51 50 49 50 51 50 51 53 51 50 48
48 51 50 48 46 44 46 44 52 45 44 48 49 49 49 49 48 47 46 46 46 46 46 46 47 47 47 47 46 46 45 46 48 49 48 49 49 49 49 49 48 48 49 50 50 50 51 52 50
52 49 47 44 44 37 45 46 51 48 50 49 49 47 46 46 46 46 46 46 46 46 46 46 46 46 46 46 46 45 44 45 46 46 46 46 46 46 48 49 47 47 47 48 49 50 49 50 52
52 46 37 34 34 35 43 44 51 49 50 51 47 47 46 46 44 44 45 45 44 44 44 45 44 44 45 45 45 44 44 45 45 45 45 43 43 44 45 46 46 46 46 47 47 47 48 49 49
47 48 38 29 32 37 41 39 48 45 46 49 51 49 45 44 44 44 43 43 42 43 43 43 43 43 44 44 44 44 45 46 46 46 45 43 42 43 44 44 45 45 46 46 46 46 47 49 49
45 41 51 40 38 35 41 44 40 43 42 44 44 44 43 44 43 44 43 42 42 43 42 41 41 43 43 43 43 43 44 45 45 45 44 44 44 44 44 44 44 44 45 45 44 44 46 48 48
50 52 39 36 25 25 38 40 44 40 41 41 41 42 43 43 43 44 43 41 43 42 42 42 41 41 42 42 42 43 43 44 44 44 42 42 43 41 42 42 44 43 44 44 43 43 45 45 45
44 42 44 43 40 33 32 41 47 46 44 42 42 43 43 43 43 42 41 41 41 42 42 41 40 40 40 41 41 41 41 42 41 41 42 42 41 41 41 42 42 42 42 43 42 41 42 43 44
49 44 45 35 36 38 39 40 47 46 47 46 45 44 44 44 43 43 41 39 39 39 40 40 39 39 39 40 39 39 39 40 39 40 41 41 39 41 41 41 41 41 42 42 40 39 40 39 39
MSLP
1012.31 1012.47 1012.40 1011.81 1012.14 1011.79 1011.35 1011.39 1011.05 1010.74 1010.87 1011.33 1011.49 1011.36 1012.13 1012.90 1013.40 1014.72 1015.28 1015.27 1015.04 1015.14 1015.29 1015.19 1015.15 1015.02 1014.94 1014.92 1014.98 1015.03 1014.93 1015.01 1015.14 1015.05 1014.96 1014.99 1015.02 1015.08 1015.12 1015.17 1015.07 1015.08 1015.10 1015.15 1015.20 1015.20 1015.25 1015.33 1015.45
1012.32 1012.26 1012.15 1012.13 1011.53 1011.30 1011.29 1011.22 1011.16 1011.13 1011.48 1011.65 1011.76 1012.17 1012.64 1013.85 1014.23 1014.83 1014.99 1015.65 1015.41 1015.45 1015.68 1015.67 1015.64 1015.48 1015.38 1015.38 1015.35 1015.14 1015.14 1015.13 1015.16 1015.15 1015.09 1015.08 1015.21 1015.22 1015.26 1015.28 1015.35 1015.32 1015.21 1015.29 1015.25 1015.34 1015.29 1015.29 1015.50
1012.44 1012.28 1012.12 1012.16 1012.10 1011.36 1011.06 1011.16 1011.38 1011.67 1011.64 1011.69 1012.45 1013.26 1013.94 1015.24 1015.38 1015.69 1016.21 1016.14 1015.84 1015.85 1015.81 1016.00 1015.95 1015.94 1015.72 1015.64 1015.70 1015.52 1015.54 1015.36 1015.50 1015.31 1015.33 1015.31 1015.29 1015.32 1015.37 1015.38 1015.41 1015.38 1015.33 1015.36 1015.30 1015.34 1015.40 1015.38 1015.45
1012.29 1012.27 1013.05 1012.34 1011.80 1011.75 1011.58 1011.62 1011.71 1011.82 1012.01 1012.26 1012.88 1013.97 1015.32 1016.77 1016.80 1016.91 1016.83 1016.48 1016.49 1016.64 1016.73 1016.64 1016.39 1016.23 1016.09 1016.09 1015.90 1015.85 1015.68 1015.69 1015.75 1015.63 1015.55 1015.47 1015.24 1015.28 1015.35 1015.31 1015.47 1015.40 1015.42 1015.35 1015.39 1015.36 1015.39 1015.46 1015.47
1012.62 1012.48 1012.48 1012.50 1012.16 1011.86 1011.70 1011.53 1011.71 1011.80 1012.25 1012.70 1013.21 1014.72 1016.09 1017.47 1018.03 1017.54 1017.24 1017.15 1017.27 1017.51 1017.38 1017.08 1016.95 1016.76 1016.59 1016.46 1016.24 1016.09 1016.04 1015.88 1015.94 1015.81 1015.76 1015.69 1015.50 1015.44 1015.39 1015.40 1015.47 1015.46 1015.44 1015.41 1015.36 1015.35 1015.42 1015.48 1015.35
1012.61 1012.84 1012.52 1012.43 1012.28 1012.03 1011.85 1011.76 1011.55 1011.95 1012.54 1013.16 1013.81 1015.13 1017.22 1018.22 1018.23 1018.24 1018.01 1017.87 1017.97 1018.06 1018.00 1017.89 1017.60 1017.38 1017.19 1016.98 1016.79 1016.61 1016.41 1016.31 1016.20 1016.03 1015.92 1015.77 1015.66 1015.53 1015.29 1015.30 1015.46 1015.47 1015.46 1015.43 1015.39 1015.34 1015.37 1015.51 1015.43
1012.62 1012.77 1012.72 1012.64 1012.38 1011.98 1011.80 1011.83 1011.74 1012.06 1012.67 1013.39 1013.96 1015.53 1017.38 1018.31 1018.79 1018.81 1018.53 1018.40 1018.47 1018.47 1018.51 1018.44 1018.35 1018.06 1017.72 1017.40 1017.22 1017.09 1016.91 1016.79 1016.49 1016.25 1016.11 1015.90 1015.63 1015.47 1015.32 1015.17 1015.09 1015.28 1015.41 1015.47 1015.38 1015.27 1015.23 1015.32 1015.31
1013.24 1012.96 1012.94 1012.84 1012.40 1011.92 1011.92 1011.86 1012.17 1012.36 1013.11 1013.85 1014.35 1015.49 1017.11 1018.26 1018.97 1018.85 1018.84 1018.91 1018.93 1019.04 1018.98 1019.08 1018.89 1018.65 1018.38 1018.13 1017.86 1017.54 1017.26 1017.07 1016.81 1016.62 1016.36 1015.93 1015.54 1015.40 1015.25 1015.17 1014.90 1014.94 1015.01 1015.18 1015.25 1015.15 1015.07 1015.18 1015.13
1013.56 1013.36 1012.76 1012.50 1012.46 1011.84 1011.95 1011.99 1012.43 1013.08 1013.47 1014.70 1015.77 1016.10 1016.80 1018.35 1018.89 1018.78 1018.71 1018.97 1019.26 1019.41 1019.63 1019.72 1019.45 1019.25 1018.94 1018.53 1018.23 1017.91 1017.68 1017.45 1017.06 1016.78 1016.58 1015.99 1015.66 1015.28 1015.14 1015.07 1014.98 1014.88 1014.80 1014.77 1014.83 1014.96 1014.92 1014.95 1014.98
1013.53 1013.54 1012.75 1012.34 1012.16 1012.02 1011.98 1012.00 1012.31 1012.99 1013.92 1015.33 1016.31 1017.25 1017.86 1018.60 1018.92 1018.97 1019.11 1019.42 1019.77 1020.01 1020.16 1020.23 1020.12 1019.85 1019.43 1018.98 1018.90 1018.48 1018.15 1017.90 1017.69 1017.42 1017.03 1016.54 1016.29 1015.81 1015.36 1015.00 1014.80 1014.54 1014.50 1014.48 1014.39 1014.45 1014.63 1014.80 1014.34
1013.92 1013.38 1013.11 1012.52 1012.31 1012.38 1012.28 1012.32 1012.80 1013.29 1014.25 1014.83 1015.64 1017.19 1018.28 1018.79 1019.18 1019.23 1019.51 1019.88 1020.32 1020.67 1020.70 1020.63 1020.63 1020.38 1019.93 1019.51 1019.18 1018.78 1018.58 1018.42 1018.14 1017.88 1017.62 1017.19 1016.70 1016.21 1015.54 1015.02 1014.52 1014.27 1014.07 1013.86 1013.84 1013.75 1013.83 1013.79 1014.04
1013.98 1013.47 1013.28 1012.86 1012.78 1012.52 1012.58 1012.74 1013.26 1013.92 1014.67 1014.94 1016.38 1017.32 1018.23 1018.95 1019.26 1019.62 1020.01 1020.37 1020.76 1021.00 1021.16 1021.12 1021.06 1020.75 1020.43 1019.95 1019.55 1019.16 1018.81 1018.74 1018.53 1018.31 1018.06 1017.56 1017.02 1016.63 1016.20 1015.65 1015.22 1014.48 1014.02 1013.63 1013.49 1013.37 1013.17 1013.22 1013.45
1013.92 1013.70 1013.38 1013.19 1013.12 1012.84 1012.76 1013.05 1013.56 1014.87 1015.71 1015.99 1017.08 1017.98 1018.76 1019.50 1020.22 1020.59 1020.75 1020.98 1021.31 1021.34 1021.55 1021.64 1021.51 1021.23 1020.79 1020.27 1019.98 1019.68 1019.41 1019.14 1019.00 1018.60 1018.41 1018.14 1017.63 1017.23 1016.76 1016.17 1015.72 1015.05 1014.62 1013.75 1013.38 1012.88 1012.77 1012.71 1012.74
1014.05 1013.82 1013.55 1013.23 1013.12 1012.93 1012.86 1013.41 1013.78 1015.74 1016.50 1016.98 1017.58 1018.36 1019.08 1019.75 1020.42 1021.12 1021.54 1021.59 1021.71 1021.64 1021.76 1021.88 1021.63 1021.42 1021.08 1020.70 1020.48 1020.17 1019.77 1019.40 1019.09 1018.85 1018.76 1018.56 1018.20 1017.81 1017.27 1016.71 1016.02 1015.35 1014.79 1014.34 1013.83 1012.92 1012.51 1012.34 1012.20
1014.05 1014.05 1013.71 1013.11 1012.93 1012.88 1012.93 1013.56 1014.15 1015.36 1016.72 1017.44 1018.07 1018.80 1019.37 1020.01 1020.60 1020.90 1021.25 1021.62 1022.03 1022.06 1022.05 1021.90 1021.53 1021.45 1021.10 1020.69 1020.44 1020.18 1019.96 1019.62 1019.32 1019.13 1018.88 1018.66 1018.38 1017.96 1017.48 1016.87 1016.36 1015.79 1015.29 1014.86 1014.17 1013.42 1012.29 1012.10 1011.80
1014.30 1014.30 1013.97 1013.22 1012.95 1013.11 1013.28 1013.24 1014.01 1015.40 1016.17 1017.44 1018.24 1018.94 1019.74 1020.49 1020.90 1021.28 1021.68 1021.86 1021.90 1021.92 1021.91 1021.90 1021.86 1021.64 1020.81 1020.51 1020.40 1020.34 1020.11 1019.67 1019.35 1019.23 1019.00 1018.75 1018.46 1018.14 1017.55 1016.87 1016.35 1015.95 1015.47 1014.92 1014.39 1013.67 1012.91 1011.80 1011.70
1014.84 1014.26 1014.00 1013.60 1013.29 1013.40 1013.67 1013.65 1014.56 1015.77 1016.54 1017.13 1018.02 1018.73 1019.56 1020.48 1021.07 1021.61 1021.96 1022.08 1022.21 1022.46 1022.31 1022.09 1021.92 1021.35 1021.05 1020.93 1021.00 1020.93 1020.33 1019.63 1019.38 1019.13 1018.81 1018.61 1018.24 1018.01 1017.54 1016.96 1016.43 1016.18 1015.51 1014.94 1014.44 1013.88 1013.28 1012.41 1011.02
1014.68 1014.55 1014.17 1013.70 1013.67 1013.51 1013.73 1013.94 1014.92 1015.79 1016.58 1017.56 1018.30 1018.90 1019.44 1020.21 1020.95 1021.70 1022.13 1022.37 1022.62 1022.75 1022.62 1022.31 1022.04 1021.80 1021.71 1021.62 1021.33 1020.73 1019.95 1019.66 1019.20 1018.93 1018.67 1018.55 1018.25 1018.04 1017.50 1016.89 1016.33 1015.93 1015.69 1015.43 1014.80 1014.14 1013.22 1012.59 1011.86
1014.91 1014.87 1014.52 1014.01 1013.77 1013.82 1013.25 1013.56 1014.33 1015.65 1016.54 1017.26 1018.27 1018.99 1019.57 1020.32 1021.25 1021.95 1022.38 1022.61 1022.79 1022.87 1022.76 1022.61 1022.22 1022.16 1022.09 1021.78 1021.26 1020.31 1019.45 1019.11 1018.93 1018.87 1018.77 1018.49 1018.20 1018.06 1017.52 1016.82 1016.18 1015.73 1015.40 1015.22 1015.00 1014.59 1013.52 1012.07 1011.64
1015.37 1015.17 1014.72 1014.26 1013.85 1013.96 1013.32 1013.18 1013.88 1015.03 1015.63 1016.38 1017.40 1018.59 1019.47 1020.44 1021.10 1021.71 1022.09 1022.51 1022.80 1022.92 1022.94 1022.73 1022.63 1022.55 1022.29 1021.83 1021.37 1020.67 1019.90 1019.37 1019.20 1018.94 1018.61 1018.51 1018.27 1018.01 1017.50 1016.88 1016.30 1015.75 1015.26 1015.09 1014.73 1014.52 1013.75 1012.53 1011.72
1015.28 1015.08 1014.80 1014.63 1014.14 1013.80 1013.60 1013.08 1014.05 1015.07 1015.82 1016.60 1017.56 1018.60 1019.63 1020.14 1020.95 1021.70 1022.16 1022.61 1022.79 1022.73 1022.75 1022.81 1022.97 1022.87 1022.35 1021.73 1021.02 1020.42 1019.80 1019.38 1019.07 1018.96 1018.50 1018.14 1018.06 1017.92 1017.45 1016.99 1016.36 1015.79 1015.46 1014.93 1014.47 1014.09 1013.65 1012.81 1011.84
1014.80 1014.49 1014.52 1014.70 1014.69 1014.00 1013.97 1012.66 1013.26 1014.43 1015.36 1016.41 1017.08 1018.03 1019.06 1020.05 1021.02 1021.65 1022.10 1022.48 1022.80 1022.88 1023.10 1023.07 1022.87 1022.58 1022.12 1021.78 1021.19 1020.68 1020.21 1019.82 1019.73 1019.26 1018.71 1018.06 1017.72 1017.50 1017.23 1016.75 1016.33 1015.84 1015.45 1014.80 1014.17 1013.52 1013.07 1012.81 1011.70
1014.34 1014.37 1014.68 1014.72 1014.58 1014.35 1014.04 1014.17 1012.56 1014.09 1015.09 1015.39 1016.37 1017.54 1018.73 1019.86 1020.78 1021.59 1022.20 1022.60 1022.93 1023.20 1023.16 1022.88 1022.64 1022.34 1022.03 1021.62 1021.27 1020.82 1020.63 1020.40 1019.85 1019.16 1018.30 1017.67 1017.54 1017.56 1017.23 1016.49 1016.30 1015.85 1015.20 1014.47 1013.93 1013.21 1012.52 1012.11 1011.69
1014.20 1014.69 1015.04 1015.16 1014.89 1014.02 1013.35 1013.86 1010.55 1012.83 1013.35 1014.38 1016.13 1017.56 1018.74 1019.82 1020.83 1021.70 1022.28 1022.72 1022.98 1023.06 1022.96 1022.79 1022.53 1022.03 1021.74 1021.45 1021.32 1021.35 1020.96 1020.13 1019.48 1018.83 1018.09 1017.75 1017.69 1017.28 1017.02 1016.37 1016.00 1015.43 1014.68 1014.11 1013.60 1012.78 1012.05 1011.46 1011.00
1013.80 1014.45 1014.88 1015.11 1014.89 1013.15 1013.20 1013.46 1010.83 1012.88 1013.64 1014.12 1015.07 1016.68 1018.48 1019.81 1020.84 1021.52 1022.03 1022.44 1022.76 1023.00 1023.07 1022.69 1022.29 1021.91 1021.85 1021.76 1021.59 1021.19 1020.68 1020.04 1019.45 1018.83 1018.32 1017.99 1017.64 1017.23 1016.92 1016.23 1015.40 1014.95 1014.21 1013.70 1013.13 1012.29 1011.51 1010.94 1010.33
1013.09 1013.25 1013.67 1013.77 1013.92 1013.35 1013.71 1012.70 1012.33 1013.81 1014.44 1014.68 1015.41 1016.86 1018.41 1019.80 1020.78 1021.50 1022.11 1022.58 1022.93 1023.17 1023.10 1022.82 1022.45 1022.16 1021.92 1021.44 1021.05 1020.81 1020.51 1019.81 1019.47 1019.20 1018.80 1018.26 1017.72 1017.34 1016.65 1015.95 1015.08 1014.38 1013.73 1013.17 1012.56 1011.77 1010.82 1010.28 1009.56
1012.68 1013.08 1013.14 1013.47 1014.19 1013.90 1012.75 1012.54 1013.45 1014.22 1014.87 1015.49 1016.28 1017.46 1018.50 1019.66 1020.66 1021.35 1021.99 1022.53 1022.94 1023.01 1023.02 1022.98 1022.70 1022.29 1021.87 1021.45 1021.00 1020.64 1020.31 1020.02 1019.69 1019.40 1018.73 1018.21 1017.62 1017.09 1016.16 1015.55 1014.48 1013.82 1013.18 1012.59 1011.85 1011.12 1010.11 1009.47 1008.86
1012.44 1012.80 1013.43 1014.18 1014.46 1013.62 1012.02 1012.37 1012.21 1013.75 1014.65 1015.91 1016.87 1017.63 1018.78 1019.64 1020.42 1021.19 1021.94 1022.41 1022.69 1022.93 1022.95 1022.82 1022.63 1022.30 1022.10 1021.74 1021.32 1020.95 1020.68 1020.13 1019.87 1019.45 1018.62 1017.86 1017.58 1016.85 1015.96 1015.13 1013.89 1013.32 1012.69 1012.12 1011.56 1010.66 1009.90 1008.84 1008.19
1012.88 1012.88 1013.12 1013.28 1013.10 1012.38 1011.77 1011.12 1011.55 1012.74 1014.00 1015.16 1016.22 1017.19 1018.25 1019.33 1020.32 1021.19 1021.97 1022.43 1022.70 1022.81 1022.73 1022.65 1022.57 1022.42 1022.00 1021.83 1021.66 1021.36 1020.78 1020.21 1019.88 1019.45 1018.61 1017.95 1017.36 1016.57 1015.84 1014.94 1013.61 1012.94 1012.35 1011.81 1011.17 1010.28 1009.44 1008.20 1007.42
1012.50 1012.66 1012.81 1013.09 1012.75 1012.62 1012.09 1010.47 1011.81 1012.88 1013.66 1014.99 1016.27 1017.27 1018.28 1019.20 1020.09 1020.98 1021.87 1022.60 1022.79 1022.89 1022.84 1022.79 1022.68 1022.52 1022.46 1022.30 1021.95 1021.50 1020.83 1020.37 1019.82 1019.27 1018.67 1017.94 1017.05 1016.34 1015.65 1014.74 1013.53 1012.63 1012.08 1011.50 1010.76 1009.74 1008.90 1008.02 1006.88
Wind_Speed
2 4 0 2 2 1 1 2 3 2 2 2 4 8 13 8 6 7 3 9 8 9 8 9 9 9 9 8 7 7 8 8 6 6 7 7 6 5 4 4 5 6 7 8 7 6 4 3 5
1 1 2 2 2 3 2 1 3 2 10 7 9 7 11 8 6 6 4 10 11 10 10 12 12 11 10 10 8 8 8 8 6 5 5 5 5 4 4 3 4 5 6 7 7 7 5 4 5
2 2 1 3 3 3 3 0 5 3 6 2 6 7 4 5 5 4 9 11 14 14 14 14 13 12 12 12 11 10 9 9 6 5 4 3 2 2 3 3 4 5 5 6 6 7 5 4 5
0 2 4 1 4 3 1 3 7 8 3 5 9 10 7 6 4 8 12 12 15 14 15 17 18 17 16 16 16 15 14 12 9 7 5 2 1 2 3 4 5 5 6 6 6 6 5 4 5
3 2 3 2 1 2 1 2 5 4 3 5 2 5 5 6 6 11 13 14 15 14 13 17 20 20 20 19 18 16 14 13 12 11 10 10 6 3 3 4 6 5 6 6 6 6 5 4 5
3 1 3 4 2 2 1 0 6 5 4 7 9 8 3 5 7 10 12 15 14 13 12 13 17 19 20 19 19 17 16 15 13 13 12 11 10 10 6 5 6 6 6 7 7 7 5 5 5
4 2 3 4 2 2 2 2 4 6 7 4 7 6 5 5 6 10 13 15 14 14 13 13 13 14 17 19 18 17 16 16 14 13 13 12 10 10 11 8 5 6 7 8 8 7 6 5 7
3 2 5 3 4 2 1 2 2 3 4 4 4 7 7 8 8 11 12 13 14 14 13 13 12 11 11 11 18 17 18 16 16 16 16 11 7 8 8 11 6 6 7 9 9 8 7 5 7
1 2 4 4 6 2 1 2 2 3 8 5 6 4 13 14 8 9 11 13 11 12 13 11 11 11 10 10 12 14 16 16 16 14 17 10 8 8 7 9 10 11 8 9 9 9 8 6 7
2 1 6 3 3 2 3 4 7 5 7 5 8 12 14 9 8 10 10 10 11 11 11 11 11 11 9 7 9 9 9 9 10 11 12 8 9 8 10 8 10 9 10 10 9 9 8 7 7
2 2 1 2 5 3 2 2 2 12 3 8 19 18 11 11 9 10 11 11 10 9 9 12 10 9 9 8 6 5 5 6 6 11 10 9 8 8 6 6 5 6 5 6 8 9 8 9 7
2 2 1 4 3 1 5 3 4 1 2 5 18 17 14 12 10 9 10 10 10 9 9 10 11 10 9 6 6 6 6 6 6 8 11 8 6 8 7 6 8 8 5 7 7 7 10 10 10
2 2 3 5 6 3 2 3 4 3 5 17 18 14 14 12 10 9 9 8 6 8 8 9 9 9 9 9 7 7 7 7 7 8 9 9 8 8 8 8 8 8 8 7 7 8 9 11 11
1 3 6 3 3 3 4 3 4 3 10 15 16 15 13 13 11 9 7 7 7 6 8 8 7 9 8 8 9 7 6 7 7 7 8 10 8 7 8 9 9 9 9 8 10 9 9 8 11
1 3 6 5 3 4 4 3 5 12 13 14 14 13 12 12 10 10 7 7 7 7 7 9 8 8 7 8 8 6 6 7 7 6 8 9 9 9 9 7 8 9 9 13 9 11 8 8 8
1 2 3 2 3 1 8 10 6 18 20 17 15 13 12 10 9 8 7 6 7 7 9 9 8 10 12 11 9 6 5 5 6 6 6 9 10 10 9 7 8 9 9 9 10 8 10 9 7
3 4 4 5 1 2 7 4 3 13 15 17 16 14 12 11 8 6 6 6 7 7 8 9 10 13 14 12 8 7 6 6 6 6 6 11 10 11 10 8 9 11 9 9 9 10 8 10 8
5 5 3 5 2 2 3 11 2 13 14 14 13 13 12 11 8 6 6 7 7 8 7 8 8 11 11 8 7 5 3 5 6 6 8 11 9 12 10 9 10 9 9 9 10 13 12 9 11
2 2 4 2 4 5 10 7 10 13 13 14 15 13 12 10 8 6 6 7 8 9 10 10 9 9 7 6 6 4 7 7 7 7 11 11 11 12 12 9 10 10 10 10 11 11 14 12 9
4 6 10 7 4 6 6 11 8 15 16 17 18 15 13 10 8 5 5 6 7 8 10 10 11 10 6 5 6 4 7 5 7 7 10 10 12 13 11 12 11 12 10 11 10 10 10 11 11
5 7 4 6 4 4 5 8 6 7 6 12 12 11 11 12 10 6 3 5 7 9 10 10 9 9 7 9 6 6 5 5 5 8 8 9 12 12 12 13 11 11 11 9 10 9 11 10 12
4 11 10 7 4 4 2 9 4 8 13 12 15 14 13 11 9 6 3 4 6 8 7 7 8 8 8 10 8 10 8 8 7 7 8 9 12 13 13 12 11 11 10 11 10 10 9 9 12
6 6 7 3 4 3 6 8 3 5 10 17 18 17 14 11 10 7 3 3 4 6 6 7 8 8 9 10 10 9 9 7 7 7 11 10 10 12 13 11 12 13 9 12 13 12 11 10 10
5 4 3 3 2 8 10 10 12 8 8 9 13 14 13 12 9 6 3 1 4 6 7 7 9 10 11 11 11 11 11 11 10 11 10 9 9 9 13 13 12 12 11 13 13 14 14 13 13
6 4 3 4 4 9 3 11 14 2 5 7 20 20 15 12 10 7 3 3 5 8 9 9 10 11 11 11 11 11 11 11 12 13 10 13 10 9 12 15 13 11 13 13 13 13 14 15 14
9 11 6 7 7 4 2 10 3 3 6 7 10 16 15 12 8 6 3 3 4 6 8 9 10 11 11 11 12 11 11 8 9 12 11 10 10 10 15 14 14 14 14 14 14 11 11 14 14
5 9 8 5 1 4 5 4 3 1 1 6 13 15 14 12 9 7 4 3 3 6 8 9 10 11 12 13 12 12 12 12 11 14 12 10 13 12 15 16 15 15 15 15 13 11 14 12 14
8 4 3 5 5 8 12 9 11 7 10 8 12 14 12 11 10 7 5 3 2 5 7 9 10 12 12 12 11 11 12 12 12 12 14 15 15 16 16 17 15 15 14 14 13 12 14 12 12
5 5 5 3 6 8 9 9 4 5 12 16 17 16 15 13 10 7 5 3 3 5 8 9 10 12 12 12 12 12 11 13 12 12 14 15 16 16 16 17 16 16 16 15 15 15 16 16 18
3 4 8 8 12 5 9 18 4 3 12 13 14 13 12 11 11 8 6 3 4 6 8 9 10 11 12 12 12 12 12 13 13 13 15 15 16 16 16 16 16 15 16 16 15 16 16 17 21
Wind_Direction
352 67 24 57 154 43 3 123 331 124 27 50 89 102 98 58 41 90 93 27 57 57 42 50 49 57 64 74 87 87 86 82 78 81 93 103 112 123 142 154 157 162 174 179 189 193 186 145 133
4 95 72 82 107 137 151 252 163 83 127 120 78 67 64 74 34 82 96 33 54 55 47 37 31 39 52 52 51 67 76 78 79 82 94 109 126 139 146 163 189 201 187 189 203 215 205 162 157
147 42 20 74 85 124 129 144 94 117 154 51 99 50 60 20 27 67 43 57 66 61 55 46 42 39 45 47 44 46 45 54 54 63 68 91 116 154 172 207 224 228 216 224 212 218 211 188 180
248 72 91 69 136 152 198 358 125 130 89 58 106 85 90 21 8 39 51 62 62 50 55 49 47 45 49 50 46 42 39 34 26 24 23 22 166 201 207 219 251 247 245 243 237 232 217 200 210
34 76 71 92 307 291 248 199 181 141 108 91 100 101 70 49 32 58 65 62 63 49 41 50 50 52 54 52 51 47 44 42 33 27 20 358 337 317 281 252 258 258 269 269 269 258 235 201 217
76 7 122 171 230 281 265 325 143 137 118 124 100 96 85 40 54 60 72 67 64 57 46 43 41 49 50 48 46 44 44 40 33 28 25 17 3 335 281 260 271 267 270 277 275 264 253 214 226
105 93 138 150 204 253 139 332 108 127 129 108 120 98 113 95 84 84 76 72 63 59 51 44 37 34 37 39 36 33 34 29 30 31 27 15 7 353 341 304 236 260 269 272 269 267 260 233 227
100 88 138 192 184 204 5 109 132 127 95 97 136 151 162 154 122 102 83 72 64 51 48 39 35 32 33 28 30 33 31 26 26 20 11 357 358 355 347 322 294 262 243 260 265 264 260 240 228
123 86 171 191 172 195 148 135 55 93 99 61 15 66 117 137 135 109 88 66 55 48 39 32 32 25 23 32 22 24 24 22 20 13 8 1 354 346 336 321 315 308 270 248 252 257 257 239 236
74 204 206 205 197 207 159 166 150 130 129 71 99 97 118 120 109 94 82 74 56 43 36 28 23 24 23 28 21 22 23 20 16 12 6 2 350 346 326 311 300 289 287 266 239 232 240 234 246
113 222 220 270 257 166 157 143 122 134 183 173 161 147 133 122 105 95 81 67 51 37 31 25 17 18 21 23 16 23 22 14 12 15 8 356 348 348 342 326 316 314 288 278 264 242 233 238 238
302 240 253 310 330 278 156 136 121 63 40 150 146 137 134 123 107 95 82 64 46 33 22 18 13 12 16 10 17 17 21 20 16 7 6 358 354 349 344 332 327 314 295 285 267 267 254 230 226
203 316 317 297 294 234 145 170 137 81 89 125 129 127 124 114 104 90 87 78 58 41 19 12 11 11 8 13 10 13 13 16 6 8 8 359 352 347 334 332 319 311 317 294 271 255 254 250 233
229 283 290 270 291 226 198 137 143 135 144 129 133 130 125 120 114 96 65 57 44 35 21 4 10 15 12 14 8 6 9 6 10 9 4 358 350 347 337 329 324 316 317 313 318 269 253 233 245
131 296 310 232 208 235 152 247 207 151 157 145 141 135 128 125 120 108 100 79 31 22 10 8 0 5 14 17 15 10 8 3 4 358 360 358 351 343 336 328 323 322 320 310 304 313 262 254 230
32 74 290 310 153 355 200 244 179 166 160 165 158 149 140 128 114 104 84 64 35 21 12 4 358 356 11 9 5 358 1 7 8 359 353 356 347 342 332 325 318 324 314 313 304 300 308 246 241
3 237 202 301 161 114 219 248 81 175 184 170 170 160 149 136 125 101 76 52 34 17 9 5 2 8 1 354 342 327 354 12 5 356 355 351 348 345 334 323 320 322 317 313 307 301 289 300 242
208 223 227 223 136 57 234 254 177 184 191 191 177 169 161 157 140 113 74 45 29 21 14 11 8 8 358 334 315 301 347 10 6 356 353 347 342 337 333 323 321 320 322 318 316 309 296 283 301
145 217 254 248 232 293 267 252 212 187 193 184 187 184 173 158 136 102 59 34 18 21 13 8 4 4 356 349 327 311 3 358 1 349 348 345 340 331 327 321 320 319 322 316 310 305 300 292 274
227 246 261 288 273 220 285 267 197 185 207 200 188 189 176 151 150 119 66 37 27 15 8 6 3 353 347 348 345 343 336 337 340 339 340 341 337 328 321 327 323 320 316 309 307 301 303 290 278
212 212 217 249 318 234 289 259 187 202 203 191 196 193 177 167 158 141 77 33 23 21 9 1 351 344 347 354 351 355 345 333 346 342 339 344 338 328 323 323 319 318 310 297 296 287 283 289 289
242 214 221 239 261 262 330 286 242 197 204 210 199 189 178 168 155 148 108 49 24 16 3 351 351 352 360 357 357 359 352 338 334 323 333 332 337 333 327 323 320 313 299 294 288 288 276 276 285
251 163 195 202 221 304 218 264 196 157 214 216 203 190 180 167 161 154 111 41 24 5 352 354 352 0 3 4 1 353 344 333 321 331 336 343 338 325 322 321 313 306 301 302 292 283 280 273 268
139 92 70 75 147 252 202 220 259 202 220 213 197 188 174 166 159 146 118 63 14 6 2 359 358 5 4 2 359 349 341 338 336 341 345 340 329 322 321 320 312 307 300 302 298 292 283 280 270
172 143 223 225 201 248 182 204 263 220 213 210 194 184 172 162 160 162 145 39 12 1 358 358 3 3 0 357 352 351 347 339 340 343 340 332 325 320 313 320 316 308 302 294 289 287 283 278 269
189 187 196 230 218 264 155 233 248 345 321 261 202 172 156 160 163 159 127 64 13 357 357 356 358 354 354 355 355 352 344 344 333 339 333 325 321 310 316 314 312 309 307 308 300 287 277 271 266
174 214 227 261 168 282 222 252 202 267 19 137 148 159 158 164 167 164 145 113 19 1 1 357 353 352 354 353 351 347 343 340 331 332 331 327 322 315 318 316 316 315 310 309 305 294 282 281 279
229 145 149 130 211 236 252 265 259 213 210 177 169 168 168 169 169 169 160 135 49 9 359 0 358 353 347 349 347 339 335 339 331 330 334 333 323 320 319 317 321 320 316 314 307 299 293 288 291
176 216 222 204 215 237 267 256 163 232 190 188 186 180 175 176 175 165 153 132 41 12 8 1 355 349 349 347 338 333 336 343 335 332 334 331 324 324 320 318 323 323 321 318 316 311 304 308 302
153 223 213 226 227 234 257 263 107 238 195 186 184 180 178 177 171 163 145 120 40 12 2 355 352 351 347 338 334 336 338 340 338 332 336 333 329 326 321 321 323 323 322 320 317 316 315 310 305